Regional Weather Roundup
Issued by NWS

Home | Current Version | Previous Version | Text Only | Print | Product List | Glossary Off
Versions: 1 2 3 4 5 6 7 8 9 10 11 12 13 14 15 16 17 18 19 20 21 22 23 24 25 26 27 28 29 30 31 32 33 34 35 36 37 38 39 40 41 42 43 44 45 46 47 48 49 50

000
ASUS44 KMEG 290310
RWRTN
TENNESSEE HOURLY STATE WEATHER ROUNDUP
NATIONAL WEATHER SERVICE MEMPHIS TN
1000 PM CDT SAT MAY 28 2016

TNZ002-004-019-021-049-052-054-088>092-290400-
WEST TENNESSEE

CITY           SKY/WX    TMP DP  RH WIND       PRES   REMARKS
MEMPHIS INTL   PTCLDY    76  68  76 S7        30.05R
NWS MEMPHIS      N/A     74 N/A N/A MISG        N/A
JACKSON        CLOUDY    70  67  90 S3        30.06R
DYERSBURG      PTCLDY    73  64  73 S3        30.04S
UNION CITY     CLEAR     72  66  83 SE6       30.04R
PARIS          CLEAR     68  64  88 SE3       30.07R
LEXINGTON      CLEAR     70  66  88 CALM      30.07R
$$

TNZ008-025-027-028-033-062-065-066-290400-
NORTH MIDDLE TENNESSEE

CITY           SKY/WX    TMP DP  RH WIND       PRES   REMARKS
NASHVILLE      PTCLDY    73  61  65 CALM      30.09R
CLARKSVILLE    MOCLDY    74  65  73 S6        30.07R
SMYRNA         MOCLDY    70  65  84 S5        30.10S
COOKEVILLE     CLEAR     66  64  94 CALM      30.12F
CROSSVILLE     CLOUDY    66  61  84 CALM      30.18R
$$

TNZ061-075-076-078-094-096-097-290400-
SOUTH MIDDLE TENNESSEE

CITY           SKY/WX    TMP DP  RH WIND       PRES   REMARKS
FAYETTEVILLE   PTCLDY    70  66  88 CALM      30.11S
TULLAHOMA      CLEAR     70  70 100 CALM      30.13S
WINCHESTER     CLEAR     68  64  88 CALM      30.12S
MCMINNVILLE    CLEAR     64  64 100 CALM      30.13S
COLUMBIA       CLEAR     72  72 100 S3        30.08S
SHELBYVILLE    CLEAR     72  70  94 SE5       30.12S
$$

TNZ017-018-042-046-047-290400-
NORTHEAST TENNESSEE

CITY           SKY/WX    TMP DP  RH WIND       PRES   REMARKS
TRI CITIES     CLOUDY    74  56  53 SE3       30.16R
$$

TNZ012-013-036-069-073-074-290400-
CENTRAL EAST TENNESSEE

CITY           SKY/WX    TMP DP  RH WIND       PRES   REMARKS
KNOXVILLE      CLOUDY    75  66  73 CALM      30.11R
OAK RIDGE      PTCLDY    72  65  78 CALM      30.12S
GATLINBURG     CLEAR     70  63  78 CALM      30.11S
$$

TNZ083-085-099-290400-
SOUTHEAST TENNESSEE

CITY           SKY/WX    TMP DP  RH WIND       PRES   REMARKS
CHATTANOOGA    PTCLDY    77  64  64 W3        30.11R
$$

SKY/WX REPORTED AS FAIR MEANS FEW OR NO CLOUDS BELOW
12 THOUSAND FEET.





USA.gov is the U.S. government's official web portal to all federal, state and local government web resources and services.